SCP
0 0 0 0 0 0 0 -0 -0 -0 0 0 0 0 0 0 0 0 0 0 0 0
0 0 0 0 0 -0 0 0 -0 -0 -0 0 0 0 0 0 0 0 0 0 0 0
0 0 0 0 0 -0 -0 -0 -0 -0 -0 0 0 0 0 0 0 0 0 0 0 0
0 0 0 0 0 -0 -0 -0 -0 0 -0 -0 0 0 0 0 0 0 0 0 0 0
0 0 0 0 0 0 -0 0 0 -0 0 0 0 0 0 0 0 0 0 0 0 0
0 0 0 0 0 0 0 -0 0 0 0 0 0 0 0 0 0 0 0 0 0 0
0 0 0 0 0 0 0 -0 -0 0 0 0 0 0 -0 0 0 0 -0 0 -0 0
0 0 0 0 0 0 0 -0 -0 0 0 0 -0 0 -0 -0 -0 -0 -0 0 0 0
0 0 0 0 -0 -0 0 0 -0 0 0 0 0 0 0 -0 -0 -0 -0 -0 0 -0
0 0 0 -0 0 0 0 0 0 -0 0 0 0 0 0 0 0 0 -0 -0 0 0
-0 -0 0 0 0 0 0 0 0 0 0 0 0 0 0 0 0 0 -0 0 0 0
-0 0 0 0 0 0 0 0 0 0 0 0 0 0 0 0 0 0 0 0 0 0
-0 0 0 0 0 0 0 0 0 0 0 0 0 -0 -0 -0 -0 -0 0 0 0 0
-0 0 0 0 0 0 0 0 -0 0 0 -0 -0 -0 -0 0 0 0 0 -0 -0 -0
Wind_Speed_500mb
11 21 26 24 20 18 18 17 23 21 25 27 27 32 30 32 35 36 47 46 46 49
12 15 22 21 24 27 20 26 23 27 24 31 33 35 42 47 51 48 50 50 47 47
7 16 18 19 20 23 26 33 30 33 36 37 41 47 52 51 52 50 46 43 42 42
7 12 9 16 22 22 30 27 30 37 39 41 42 48 50 51 50 44 45 42 39 35
10 12 11 21 28 29 23 25 30 35 39 42 40 40 39 38 41 41 38 35 28 47
13 13 14 16 25 32 29 29 34 36 37 38 43 39 37 37 39 39 38 33 29 52
15 14 20 22 19 28 31 40 37 33 33 31 34 30 33 37 43 37 34 31 35 43
20 21 22 21 24 22 32 41 38 41 38 25 34 38 40 43 39 40 47 42 44 53
25 24 25 24 27 26 30 28 27 27 33 36 41 34 42 43 42 44 44 43 48 49
32 28 26 25 28 29 27 28 24 15 32 40 42 39 39 38 40 40 40 39 42 40
33 32 30 28 28 33 33 27 21 21 30 35 38 39 39 37 39 42 44 38 35 43
38 38 36 33 32 29 36 32 28 21 27 29 34 39 36 30 36 34 40 30 27 33
40 42 41 41 36 30 34 34 29 23 18 25 32 33 31 27 20 28 34 34 29 32
40 46 43 43 41 38 35 29 29 24 24 21 30 33 35 33 25 21 26 26 31 32
Wind_Direction_500mb
354 23 70 67 51 50 57 93 128 139 156 175 179 171 161 145 144 146 143 147 152 147
3 49 64 54 54 42 78 107 120 131 150 151 151 150 150 144 144 142 145 156 150 151
34 58 46 52 61 56 91 110 104 126 130 143 147 147 149 152 150 137 130 135 152 150
98 85 71 68 70 80 101 108 95 114 123 137 143 148 153 157 151 144 140 134 122 143
124 111 90 88 82 76 105 115 113 117 122 134 144 150 152 153 154 165 168 162 141 157
141 142 108 110 94 87 89 111 121 129 123 141 145 150 151 154 158 165 157 163 142 148
151 128 101 103 95 90 101 102 112 127 119 124 140 140 138 145 156 159 150 156 155 157
158 144 129 115 114 106 103 106 97 101 98 112 127 129 125 124 129 137 128 124 149 150
166 155 150 145 127 120 112 97 101 107 118 115 113 115 131 127 125 129 135 132 134 146
172 172 163 154 146 138 131 125 134 110 125 129 124 118 120 127 137 145 140 136 141 146
179 180 168 167 166 163 154 146 141 134 135 131 126 125 124 126 125 128 131 134 150 161
185 186 178 178 188 182 166 159 148 157 165 162 150 142 140 143 145 144 140 149 161 163
188 191 187 186 194 191 176 171 158 172 181 178 178 175 168 148 164 166 166 178 169 178
193 195 195 193 204 196 181 182 171 188 184 204 190 188 182 165 177 196 184 181 175 169
Wind_Speed_850mb
11 21 26 24 20 18 18 17 23 21 25 27 27 32 30 32 35 36 47 46 46 49
12 15 22 21 24 27 20 26 23 27 24 31 33 35 42 47 51 48 50 50 47 47
7 16 18 19 20 23 26 33 30 33 36 37 41 47 52 51 52 50 46 43 42 42
7 12 9 16 22 22 30 27 30 37 39 41 42 48 50 51 50 44 45 42 39 35
10 12 11 21 28 29 23 25 30 35 39 42 40 40 39 38 41 41 38 35 28 47
13 13 14 16 25 32 29 29 34 36 37 38 43 39 37 37 39 39 38 33 29 52
15 14 20 22 19 28 31 40 37 33 33 31 34 30 33 37 43 37 34 31 35 43
20 21 22 21 24 22 32 41 38 41 38 25 34 38 40 43 39 40 47 42 44 53
25 24 25 24 27 26 30 28 27 27 33 36 41 34 42 43 42 44 44 43 48 49
32 28 26 25 28 29 27 28 24 15 32 40 42 39 39 38 40 40 40 39 42 40
33 32 30 28 28 33 33 27 21 21 30 35 38 39 39 37 39 42 44 38 35 43
38 38 36 33 32 29 36 32 28 21 27 29 34 39 36 30 36 34 40 30 27 33
40 42 41 41 36 30 34 34 29 23 18 25 32 33 31 27 20 28 34 34 29 32
40 46 43 43 41 38 35 29 29 24 24 21 30 33 35 33 25 21 26 26 31 32
Wind_Direction_850mb
354 23 70 67 51 50 57 93 128 139 156 175 179 171 161 145 144 146 143 147 152 147
3 49 64 54 54 42 78 107 120 131 150 151 151 150 150 144 144 142 145 156 150 151
34 58 46 52 61 56 91 110 104 126 130 143 147 147 149 152 150 137 130 135 152 150
98 85 71 68 70 80 101 108 95 114 123 137 143 148 153 157 151 144 140 134 122 143
124 111 90 88 82 76 105 115 113 117 122 134 144 150 152 153 154 165 168 162 141 157
141 142 108 110 94 87 89 111 121 129 123 141 145 150 151 154 158 165 157 163 142 148
151 128 101 103 95 90 101 102 112 127 119 124 140 140 138 145 156 159 150 156 155 157
158 144 129 115 114 106 103 106 97 101 98 112 127 129 125 124 129 137 128 124 149 150
166 155 150 145 127 120 112 97 101 107 118 115 113 115 131 127 125 129 135 132 134 146
172 172 163 154 146 138 131 125 134 110 125 129 124 118 120 127 137 145 140 136 141 146
179 180 168 167 166 163 154 146 141 134 135 131 126 125 124 126 125 128 131 134 150 161
185 186 178 178 188 182 166 159 148 157 165 162 150 142 140 143 145 144 140 149 161 163
188 191 187 186 194 191 176 171 158 172 181 178 178 175 168 148 164 166 166 178 169 178
193 195 195 193 204 196 181 182 171 188 184 204 190 188 182 165 177 196 184 181 175 169